{"data":{"norad_id":66389,"epoch":"2026-05-25T05:14:30.516000Z","epoch_age_seconds":46419,"freshness":"FRESH","line1":"1 66389U 25257K   26145.21840875  .00010270  00000+0  35835-3 0  9992","line2":"2 66389  53.1580 221.3225 0000979  85.8256 274.2856 15.30204794 31454","mean_motion":15.30204794,"eccentricity":9.79e-5,"inclination_deg":53.158,"raan_deg":221.3225,"arg_perigee_deg":85.8256,"mean_anomaly_deg":274.2856,"bstar":0.00035835,"rev_number":3145,"period_min":94.10505088249,"perigee_km":474.52981367056,"apogee_km":475.87169720308,"semimajor_km":6853.3377554368,"source":"CELESTRAK","updated_at":"2026-05-25T13:38:21.201867Z"}}